Year,Month,Day,Hour,Minute,Value (Times are PST for temperature in C)
2007,05,17,00,00,9.20
2007,05,17,00,01,9.20
2007,05,17,00,02,9.20
2007,05,17,00,03,9.10
2007,05,17,00,04,9.10
2007,05,17,00,05,9.10
2007,05,17,00,06,9.10
2007,05,17,00,07,9.00
2007,05,17,00,08,9.00
2007,05,17,00,09,9.00
2007,05,17,00,10,9.00
2007,05,17,00,11,9.00
2007,05,17,00,12,9.00
2007,05,17,00,13,9.00
2007,05,17,00,14,9.00
2007,05,17,00,15,9.00
2007,05,17,00,16,9.00
2007,05,17,00,17,9.00
2007,05,17,00,18,9.00
2007,05,17,00,19,9.00
2007,05,17,00,20,9.00
2007,05,17,00,21,8.90
2007,05,17,00,22,8.90
2007,05,17,00,23,8.90
2007,05,17,00,24,8.90
2007,05,17,00,25,8.90
2007,05,17,00,26,8.90
2007,05,17,00,27,8.80
2007,05,17,00,28,8.80
2007,05,17,00,29,8.80
2007,05,17,00,30,8.80
2007,05,17,00,31,8.80
2007,05,17,00,32,8.70
2007,05,17,00,33,8.70
2007,05,17,00,34,8.70
2007,05,17,00,35,8.70
2007,05,17,00,36,8.70
2007,05,17,00,37,8.70
2007,05,17,00,38,8.70
2007,05,17,00,39,8.60
2007,05,17,00,40,8.60
2007,05,17,00,41,8.60
2007,05,17,00,42,8.50
2007,05,17,00,43,8.50
2007,05,17,00,44,8.50
2007,05,17,00,45,8.50
2007,05,17,00,46,8.50
2007,05,17,00,47,8.50
2007,05,17,00,48,8.50
2007,05,17,00,49,8.50
2007,05,17,00,50,8.50
2007,05,17,00,51,8.50
2007,05,17,00,52,8.50
2007,05,17,00,53,8.50
2007,05,17,00,54,8.50
2007,05,17,00,55,8.50
2007,05,17,00,56,8.50
2007,05,17,00,57,8.50
2007,05,17,00,58,8.50
2007,05,17,00,59,8.50
2007,05,17,01,00,8.50
2007,05,17,01,01,8.50
2007,05,17,01,02,8.50
2007,05,17,01,03,8.40
2007,05,17,01,04,8.40
2007,05,17,01,05,8.40
2007,05,17,01,06,8.30
2007,05,17,01,07,8.30
2007,05,17,01,08,8.30
2007,05,17,01,09,8.30
2007,05,17,01,10,8.30
2007,05,17,01,11,8.30
2007,05,17,01,12,8.30
2007,05,17,01,13,8.30
2007,05,17,01,14,8.30
2007,05,17,01,15,8.30
2007,05,17,01,16,8.30
2007,05,17,01,17,8.30
2007,05,17,01,18,8.30
2007,05,17,01,19,8.30
2007,05,17,01,20,8.20
2007,05,17,01,21,8.20
2007,05,17,01,22,8.20
2007,05,17,01,23,8.20
2007,05,17,01,24,8.20
2007,05,17,01,25,8.20
2007,05,17,01,26,8.20
2007,05,17,01,27,8.20
2007,05,17,01,28,8.20
2007,05,17,01,29,8.20
2007,05,17,01,30,8.10
2007,05,17,01,31,8.00
2007,05,17,01,32,7.90
2007,05,17,01,33,7.80
2007,05,17,01,34,7.80
2007,05,17,01,35,7.70
2007,05,17,01,36,7.60
2007,05,17,01,37,7.50
2007,05,17,01,38,7.40
2007,05,17,01,39,7.40
2007,05,17,01,40,7.30
2007,05,17,01,41,7.30
2007,05,17,01,42,7.20
2007,05,17,01,43,7.20
2007,05,17,01,44,7.10
2007,05,17,01,45,7.10
2007,05,17,01,46,7.00
2007,05,17,01,47,7.00
2007,05,17,01,48,6.90
2007,05,17,01,49,6.90
2007,05,17,01,50,6.80
2007,05,17,01,51,6.80
2007,05,17,01,52,6.80
2007,05,17,01,53,6.80
2007,05,17,01,54,6.80
2007,05,17,01,55,6.70
2007,05,17,01,56,6.70
2007,05,17,01,57,6.60
2007,05,17,01,58,6.60
2007,05,17,01,59,6.60
2007,05,17,02,00,6.60
2007,05,17,02,01,6.60
2007,05,17,02,02,6.60
2007,05,17,02,03,6.60
2007,05,17,02,04,6.60
2007,05,17,02,05,6.60
2007,05,17,02,06,6.60
2007,05,17,02,07,6.60
2007,05,17,02,08,6.60
2007,05,17,02,09,6.50
2007,05,17,02,10,6.40
2007,05,17,02,11,6.40
2007,05,17,02,12,6.40
2007,05,17,02,13,6.40
2007,05,17,02,14,6.40
2007,05,17,02,15,6.30
2007,05,17,02,16,6.30
2007,05,17,02,17,6.20
2007,05,17,02,18,6.20
2007,05,17,02,19,6.20
2007,05,17,02,20,6.20
2007,05,17,02,21,6.20
2007,05,17,02,22,6.10
2007,05,17,02,23,6.10
2007,05,17,02,24,6.00
2007,05,17,02,25,6.00
2007,05,17,02,26,6.00
2007,05,17,02,27,5.90
2007,05,17,02,28,5.90
2007,05,17,02,29,5.80
2007,05,17,02,30,5.80
2007,05,17,02,31,5.80
2007,05,17,02,32,5.70
2007,05,17,02,33,5.70
2007,05,17,02,34,5.70
2007,05,17,02,35,5.70
2007,05,17,02,36,5.70
2007,05,17,02,37,5.70
2007,05,17,02,38,5.60
2007,05,17,02,39,5.60
2007,05,17,02,40,5.50
2007,05,17,02,41,5.50
2007,05,17,02,42,5.50
2007,05,17,02,43,5.50
2007,05,17,02,44,5.40
2007,05,17,02,45,5.40
2007,05,17,02,46,5.40
2007,05,17,02,47,5.40
2007,05,17,02,48,5.40
2007,05,17,02,49,5.30
2007,05,17,02,50,5.30
2007,05,17,02,51,5.30
2007,05,17,02,52,5.30
2007,05,17,02,53,5.30
2007,05,17,02,54,5.30
2007,05,17,02,55,5.30
2007,05,17,02,56,5.30
2007,05,17,02,57,5.30
2007,05,17,02,58,5.30
2007,05,17,02,59,5.40
2007,05,17,03,00,5.40
2007,05,17,03,01,5.40
2007,05,17,03,02,5.40
2007,05,17,03,03,5.40
2007,05,17,03,04,5.40
2007,05,17,03,05,5.40
2007,05,17,03,06,5.40
2007,05,17,03,07,5.40
2007,05,17,03,08,5.40
2007,05,17,03,09,5.40
2007,05,17,03,10,5.40
2007,05,17,03,11,5.40
2007,05,17,03,12,5.40
2007,05,17,03,13,5.30
2007,05,17,03,14,5.30
2007,05,17,03,15,5.30
2007,05,17,03,16,5.30
2007,05,17,03,17,5.30
2007,05,17,03,18,5.30
2007,05,17,03,19,5.30
2007,05,17,03,20,5.30
2007,05,17,03,21,5.30
2007,05,17,03,22,5.30
2007,05,17,03,23,5.30
2007,05,17,03,24,5.30
2007,05,17,03,25,5.30
2007,05,17,03,26,5.30
2007,05,17,03,27,5.30
2007,05,17,03,28,5.30
2007,05,17,03,29,5.30
2007,05,17,03,30,5.30
2007,05,17,03,31,5.30
2007,05,17,03,32,5.30
2007,05,17,03,33,5.30
2007,05,17,03,34,5.30
2007,05,17,03,35,5.30
2007,05,17,03,36,5.30
2007,05,17,03,37,5.30
2007,05,17,03,38,5.30
2007,05,17,03,39,5.30
2007,05,17,03,40,5.20
2007,05,17,03,41,5.20
2007,05,17,03,42,5.20
2007,05,17,03,43,5.20
2007,05,17,03,44,5.20
2007,05,17,03,45,5.20
2007,05,17,03,46,5.20
2007,05,17,03,47,5.20
2007,05,17,03,48,5.20
2007,05,17,03,49,5.20
2007,05,17,03,50,5.20
2007,05,17,03,51,5.20
2007,05,17,03,52,5.20
2007,05,17,03,53,5.10
2007,05,17,03,54,5.10
2007,05,17,03,55,5.10
2007,05,17,03,56,5.10
2007,05,17,03,57,5.10
2007,05,17,03,58,5.10
2007,05,17,03,59,5.10
2007,05,17,04,00,5.10
2007,05,17,04,01,5.10
2007,05,17,04,02,5.10
2007,05,17,04,03,5.10
2007,05,17,04,04,5.10
2007,05,17,04,05,5.10
2007,05,17,04,06,5.10
2007,05,17,04,07,5.10
2007,05,17,04,08,5.10
2007,05,17,04,09,5.10
2007,05,17,04,10,5.10
2007,05,17,04,11,5.10
2007,05,17,04,12,5.10
2007,05,17,04,13,5.10
2007,05,17,04,14,5.10
2007,05,17,04,15,5.10
2007,05,17,04,16,5.10
2007,05,17,04,17,5.10
2007,05,17,04,18,5.10
2007,05,17,04,19,5.10
2007,05,17,04,20,5.10
2007,05,17,04,21,5.10
2007,05,17,04,22,5.10
2007,05,17,04,23,5.10
2007,05,17,04,24,5.10
2007,05,17,04,25,5.10
2007,05,17,04,26,5.10
2007,05,17,04,27,5.10
2007,05,17,04,28,5.10
2007,05,17,04,29,5.10
2007,05,17,04,30,5.10
2007,05,17,04,31,5.10
2007,05,17,04,32,5.10
2007,05,17,04,33,5.10
2007,05,17,04,34,5.00
2007,05,17,04,35,4.90
2007,05,17,04,36,4.90
2007,05,17,04,37,4.90
2007,05,17,04,38,4.90
2007,05,17,04,39,4.90
2007,05,17,04,40,4.80
2007,05,17,04,41,4.80
2007,05,17,04,42,4.80
2007,05,17,04,43,4.80
2007,05,17,04,44,4.80
2007,05,17,04,45,4.80
2007,05,17,04,46,4.70
2007,05,17,04,47,4.70
2007,05,17,04,48,4.70
2007,05,17,04,49,4.70
2007,05,17,04,50,4.70
2007,05,17,04,51,4.70
2007,05,17,04,52,4.70
2007,05,17,04,53,4.70
2007,05,17,04,54,4.70
2007,05,17,04,55,4.70
2007,05,17,04,56,4.70
2007,05,17,04,57,4.60
2007,05,17,04,58,4.70
2007,05,17,04,59,4.60
2007,05,17,05,00,4.70
2007,05,17,05,01,4.70
2007,05,17,05,02,4.70
2007,05,17,05,03,4.70
2007,05,17,05,04,4.70
2007,05,17,05,05,4.70
2007,05,17,05,06,4.70
2007,05,17,05,07,4.70
2007,05,17,05,08,4.70
2007,05,17,05,09,4.70
2007,05,17,05,10,4.70
2007,05,17,05,11,4.70
2007,05,17,05,12,4.70
2007,05,17,05,13,4.70
2007,05,17,05,14,4.70
2007,05,17,05,15,4.70
2007,05,17,05,16,4.70
2007,05,17,05,17,4.70
2007,05,17,05,18,4.70
2007,05,17,05,19,4.70
2007,05,17,05,20,4.70
2007,05,17,05,21,4.70
2007,05,17,05,22,4.80
2007,05,17,05,23,4.80
2007,05,17,05,24,4.80
2007,05,17,05,25,4.80
2007,05,17,05,26,4.80
2007,05,17,05,27,4.80
2007,05,17,05,28,4.80
2007,05,17,05,29,4.80
2007,05,17,05,30,4.80
2007,05,17,05,31,4.80
2007,05,17,05,32,4.80
2007,05,17,05,33,4.80
2007,05,17,05,34,4.80
2007,05,17,05,35,4.80
2007,05,17,05,36,4.80
2007,05,17,05,37,4.80
2007,05,17,05,38,4.80
2007,05,17,05,39,4.80
2007,05,17,05,40,4.70
2007,05,17,05,41,4.70
2007,05,17,05,42,4.70
2007,05,17,05,43,4.70
2007,05,17,05,44,4.70
2007,05,17,05,45,4.70
2007,05,17,05,46,4.70
2007,05,17,05,47,4.70
2007,05,17,05,48,4.70
2007,05,17,05,49,4.70
2007,05,17,05,50,4.70
2007,05,17,05,51,4.70
2007,05,17,05,52,4.70
2007,05,17,05,53,4.70
2007,05,17,05,54,4.70
2007,05,17,05,55,4.70
2007,05,17,05,56,4.70
2007,05,17,05,57,4.70
2007,05,17,05,58,4.70
2007,05,17,05,59,4.70
2007,05,17,06,00,4.70
2007,05,17,06,01,4.70
2007,05,17,06,02,4.70
2007,05,17,06,03,4.70
2007,05,17,06,04,4.70
2007,05,17,06,05,4.70
2007,05,17,06,06,4.70
2007,05,17,06,07,4.70
2007,05,17,06,08,4.70
2007,05,17,06,09,4.70
2007,05,17,06,10,4.70
2007,05,17,06,11,4.80
2007,05,17,06,12,4.80
2007,05,17,06,13,4.80
2007,05,17,06,14,4.80
2007,05,17,06,15,4.80
2007,05,17,06,16,4.80
2007,05,17,06,17,4.80
2007,05,17,06,18,4.80
2007,05,17,06,19,4.90
2007,05,17,06,20,4.90
2007,05,17,06,21,4.90
2007,05,17,06,22,4.90
2007,05,17,06,23,4.90
2007,05,17,06,24,4.90
2007,05,17,06,25,4.90
2007,05,17,06,26,4.90
2007,05,17,06,27,5.00
2007,05,17,06,28,5.10
2007,05,17,06,29,5.10
2007,05,17,06,30,5.10
2007,05,17,06,31,5.10
2007,05,17,06,32,5.10
2007,05,17,06,33,5.10
2007,05,17,06,34,5.20
2007,05,17,06,35,5.20
2007,05,17,06,36,5.30
2007,05,17,06,37,5.30
2007,05,17,06,38,5.30
2007,05,17,06,39,5.30
2007,05,17,06,40,5.30
2007,05,17,06,41,5.30
2007,05,17,06,42,5.30
2007,05,17,06,43,5.30
2007,05,17,06,44,5.30
2007,05,17,06,45,5.30
2007,05,17,06,46,5.40
2007,05,17,06,47,5.40
2007,05,17,06,48,5.40
2007,05,17,06,49,5.50
2007,05,17,06,50,5.50
2007,05,17,06,51,5.50
2007,05,17,06,52,5.60
2007,05,17,06,53,5.60
2007,05,17,06,54,5.60
2007,05,17,06,55,5.70
2007,05,17,06,56,5.70
2007,05,17,06,57,5.70
2007,05,17,06,58,5.80
2007,05,17,06,59,5.80
2007,05,17,07,00,5.90
2007,05,17,07,01,6.00
2007,05,17,07,02,6.00
2007,05,17,07,03,6.20
2007,05,17,07,04,6.20
2007,05,17,07,05,6.30
2007,05,17,07,06,6.40
2007,05,17,07,07,6.40
2007,05,17,07,08,6.50
2007,05,17,07,09,6.60
2007,05,17,07,10,6.60
2007,05,17,07,11,6.70
2007,05,17,07,12,6.70
2007,05,17,07,13,6.80
2007,05,17,07,14,6.80
2007,05,17,07,15,6.80
2007,05,17,07,16,6.90
2007,05,17,07,17,7.00
2007,05,17,07,18,7.00
2007,05,17,07,19,7.10
2007,05,17,07,20,7.10
2007,05,17,07,21,7.20
2007,05,17,07,22,7.30
2007,05,17,07,23,7.30
2007,05,17,07,24,7.30
2007,05,17,07,25,7.40
2007,05,17,07,26,7.50
2007,05,17,07,27,7.50
2007,05,17,07,28,7.60
2007,05,17,07,29,7.60
2007,05,17,07,30,7.70
2007,05,17,07,31,7.80
2007,05,17,07,32,7.80
2007,05,17,07,33,7.80
2007,05,17,07,34,7.90
2007,05,17,07,35,7.90
2007,05,17,07,36,8.00
2007,05,17,07,37,8.00
2007,05,17,07,38,8.10
2007,05,17,07,39,8.20
2007,05,17,07,40,8.20
2007,05,17,07,41,8.20
2007,05,17,07,42,8.20
2007,05,17,07,43,8.30
2007,05,17,07,44,8.40
2007,05,17,07,45,8.40
2007,05,17,07,46,8.50
2007,05,17,07,47,8.50
2007,05,17,07,48,8.60
2007,05,17,07,49,8.60
2007,05,17,07,50,8.70
2007,05,17,07,51,8.70
2007,05,17,07,52,8.70
2007,05,17,07,53,8.80
2007,05,17,07,54,8.90
2007,05,17,07,55,8.90
2007,05,17,07,56,9.00
2007,05,17,07,57,9.10
2007,05,17,07,58,9.20
2007,05,17,07,59,9.30
2007,05,17,08,00,9.30
2007,05,17,08,01,9.40
2007,05,17,08,02,9.40
2007,05,17,08,03,9.50
2007,05,17,08,04,9.60
2007,05,17,08,05,9.60
2007,05,17,08,06,9.70
2007,05,17,08,07,9.70
2007,05,17,08,08,9.80
2007,05,17,08,09,9.80
2007,05,17,08,10,9.90
2007,05,17,08,11,9.90
2007,05,17,08,12,10.00
2007,05,17,08,13,10.10
2007,05,17,08,14,10.10
2007,05,17,08,15,10.20
2007,05,17,08,16,10.20
2007,05,17,08,17,10.20
2007,05,17,08,18,10.30
2007,05,17,08,19,10.40
2007,05,17,08,20,10.40
2007,05,17,08,21,10.50
2007,05,17,08,22,10.60
2007,05,17,08,23,10.60
2007,05,17,08,24,10.60
2007,05,17,08,25,10.70
2007,05,17,08,26,10.80
2007,05,17,08,27,10.80
2007,05,17,08,28,10.80
2007,05,17,08,29,10.80
2007,05,17,08,30,10.80
2007,05,17,08,31,10.90
2007,05,17,08,32,10.90
2007,05,17,08,33,10.90
2007,05,17,08,34,10.90
2007,05,17,08,35,10.90
2007,05,17,08,36,10.90
2007,05,17,08,37,10.90
2007,05,17,08,38,10.90
2007,05,17,08,39,10.90
2007,05,17,08,40,10.90
2007,05,17,08,41,10.90
2007,05,17,08,42,10.90
2007,05,17,08,43,10.90
2007,05,17,08,44,11.10
2007,05,17,08,45,11.10
2007,05,17,08,46,11.10
2007,05,17,08,47,11.10
2007,05,17,08,48,11.10
2007,05,17,08,49,11.10
2007,05,17,08,50,11.20
2007,05,17,08,51,11.20
2007,05,17,08,52,11.20
2007,05,17,08,53,11.30
2007,05,17,08,54,11.30
2007,05,17,08,55,11.40
2007,05,17,08,56,11.40
2007,05,17,08,57,11.40
2007,05,17,08,58,11.40
2007,05,17,08,59,11.40
2007,05,17,09,00,11.40
2007,05,17,09,01,11.50
2007,05,17,09,02,11.40
2007,05,17,09,03,11.50
2007,05,17,09,04,11.60
2007,05,17,09,05,11.60
2007,05,17,09,06,11.70
2007,05,17,09,07,11.70
2007,05,17,09,08,11.80
2007,05,17,09,09,11.80
2007,05,17,09,10,11.80
2007,05,17,09,11,11.80
2007,05,17,09,12,11.80
2007,05,17,09,13,11.90
2007,05,17,09,14,11.90
2007,05,17,09,15,11.90
2007,05,17,09,16,12.00
2007,05,17,09,17,12.00
2007,05,17,09,18,12.00
2007,05,17,09,19,12.10
2007,05,17,09,20,12.10
2007,05,17,09,21,12.00
2007,05,17,09,22,12.00
2007,05,17,09,23,12.00
2007,05,17,09,24,12.00
2007,05,17,09,25,12.10
2007,05,17,09,26,12.10
2007,05,17,09,27,12.10
2007,05,17,09,28,12.10
2007,05,17,09,29,12.10
2007,05,17,09,30,12.10
2007,05,17,09,31,12.20
2007,05,17,09,32,12.20
2007,05,17,09,33,12.20
2007,05,17,09,34,12.30
2007,05,17,09,35,12.30
2007,05,17,09,36,12.30
2007,05,17,09,37,12.40
2007,05,17,09,38,12.40
2007,05,17,09,39,12.40
2007,05,17,09,40,12.40
2007,05,17,09,41,12.50
2007,05,17,09,42,12.50
2007,05,17,09,43,12.50
2007,05,17,09,44,12.50
2007,05,17,09,45,12.50
2007,05,17,09,46,12.50
2007,05,17,09,47,12.50
2007,05,17,09,48,12.50
2007,05,17,09,49,12.40
2007,05,17,09,50,12.40
2007,05,17,09,51,12.30
2007,05,17,09,52,12.40
2007,05,17,09,53,12.50
2007,05,17,09,54,12.60
2007,05,17,09,55,12.70
2007,05,17,09,56,12.80
2007,05,17,09,57,12.80
2007,05,17,09,58,12.80
2007,05,17,09,59,12.90
2007,05,17,10,00,12.90
2007,05,17,10,01,13.00
2007,05,17,10,02,13.00
2007,05,17,10,03,13.10
2007,05,17,10,04,13.20
2007,05,17,10,05,13.30
2007,05,17,10,06,13.40
2007,05,17,10,07,13.50
2007,05,17,10,08,13.50
2007,05,17,10,09,13.50
2007,05,17,10,10,13.60
2007,05,17,10,11,13.60
2007,05,17,10,12,13.60
2007,05,17,10,13,13.50
2007,05,17,10,14,13.50
2007,05,17,10,15,13.50
2007,05,17,10,16,13.50
2007,05,17,10,17,13.50
2007,05,17,10,18,13.50
2007,05,17,10,19,13.60
2007,05,17,10,20,13.60
2007,05,17,10,21,13.70
2007,05,17,10,22,13.70
2007,05,17,10,23,13.70
2007,05,17,10,24,13.70
2007,05,17,10,25,13.70
2007,05,17,10,26,13.70
2007,05,17,10,27,13.70
2007,05,17,10,28,13.80
2007,05,17,10,29,13.80
2007,05,17,10,30,13.80
2007,05,17,10,31,13.80
2007,05,17,10,32,13.80
2007,05,17,10,33,13.90
2007,05,17,10,34,13.90
2007,05,17,10,35,13.90
2007,05,17,10,36,13.80
2007,05,17,10,37,13.80
2007,05,17,10,38,13.90
2007,05,17,10,39,13.90
2007,05,17,10,40,14.00
2007,05,17,10,41,14.00
2007,05,17,10,42,14.00
2007,05,17,10,43,14.10
2007,05,17,10,44,14.20
2007,05,17,10,45,14.20
2007,05,17,10,46,14.20
2007,05,17,10,47,14.20
2007,05,17,10,48,14.20
2007,05,17,10,49,14.20
2007,05,17,10,50,14.20
2007,05,17,10,51,14.20
2007,05,17,10,52,14.40
2007,05,17,10,53,14.50
2007,05,17,10,54,14.50
2007,05,17,10,55,14.50
2007,05,17,10,56,14.60
2007,05,17,10,57,14.70
2007,05,17,10,58,14.90
2007,05,17,10,59,14.90
2007,05,17,11,00,14.90
2007,05,17,11,01,14.90
2007,05,17,11,02,14.90
2007,05,17,11,03,15.00
2007,05,17,11,04,15.10
2007,05,17,11,05,15.00
2007,05,17,11,06,14.90
2007,05,17,11,07,14.70
2007,05,17,11,08,14.60
2007,05,17,11,09,14.60
2007,05,17,11,10,14.60
2007,05,17,11,11,14.70
2007,05,17,11,12,14.70
2007,05,17,11,13,14.60
2007,05,17,11,14,14.50
2007,05,17,11,15,14.40
2007,05,17,11,16,14.40
2007,05,17,11,17,14.50
2007,05,17,11,18,14.50
2007,05,17,11,19,14.50
2007,05,17,11,20,14.60
2007,05,17,11,21,14.70
2007,05,17,11,22,14.70
2007,05,17,11,23,14.70
2007,05,17,11,24,14.70
2007,05,17,11,25,14.80
2007,05,17,11,26,14.80
2007,05,17,11,27,14.90
2007,05,17,11,28,15.00
2007,05,17,11,29,15.00
2007,05,17,11,30,15.10
2007,05,17,11,31,15.20
2007,05,17,11,32,15.20
2007,05,17,11,33,15.30
2007,05,17,11,34,15.40
2007,05,17,11,35,15.50
2007,05,17,11,36,15.50
2007,05,17,11,37,15.50
2007,05,17,11,38,15.50
2007,05,17,11,39,15.60
2007,05,17,11,40,15.50
2007,05,17,11,41,15.50
2007,05,17,11,42,15.40
2007,05,17,11,43,15.30
2007,05,17,11,44,15.30
2007,05,17,11,45,15.20
2007,05,17,11,46,15.10
2007,05,17,11,47,15.10
2007,05,17,11,48,15.20
2007,05,17,11,49,15.30
2007,05,17,11,50,15.30
2007,05,17,11,51,15.30
2007,05,17,11,52,15.20
2007,05,17,11,53,15.20
2007,05,17,11,54,15.10
2007,05,17,11,55,15.10
2007,05,17,11,56,15.20
2007,05,17,11,57,15.10
2007,05,17,11,58,15.10
2007,05,17,11,59,15.00
2007,05,17,12,00,14.90
2007,05,17,12,01,15.00
2007,05,17,12,02,15.00
2007,05,17,12,03,15.20
2007,05,17,12,04,15.30
2007,05,17,12,05,15.30
2007,05,17,12,06,15.30
2007,05,17,12,07,15.40
2007,05,17,12,08,15.50
2007,05,17,12,09,15.50
2007,05,17,12,10,15.60
2007,05,17,12,11,15.60
2007,05,17,12,12,15.60
2007,05,17,12,13,15.50
2007,05,17,12,14,15.60
2007,05,17,12,15,15.50
2007,05,17,12,16,15.50
2007,05,17,12,17,15.40
2007,05,17,12,18,15.30
2007,05,17,12,19,15.30
2007,05,17,12,20,15.30
2007,05,17,12,21,15.10
2007,05,17,12,22,15.00
2007,05,17,12,23,15.00
2007,05,17,12,24,15.10
2007,05,17,12,25,15.20
2007,05,17,12,26,15.30
2007,05,17,12,27,15.30
2007,05,17,12,28,15.20
2007,05,17,12,29,15.00
2007,05,17,12,30,14.90
2007,05,17,12,31,15.00
2007,05,17,12,32,15.00
2007,05,17,12,33,15.00
2007,05,17,12,34,15.00
2007,05,17,12,35,15.10
2007,05,17,12,36,15.10
2007,05,17,12,37,15.10
2007,05,17,12,38,15.00
2007,05,17,12,39,15.10
2007,05,17,12,40,15.10
2007,05,17,12,41,15.10
2007,05,17,12,42,15.20
2007,05,17,12,43,15.30
2007,05,17,12,44,15.30
2007,05,17,12,45,15.30
2007,05,17,12,46,15.20
2007,05,17,12,47,15.30
2007,05,17,12,48,15.30
2007,05,17,12,49,15.50
2007,05,17,12,50,15.60
2007,05,17,12,51,15.70
2007,05,17,12,52,15.80
2007,05,17,12,53,16.00
2007,05,17,12,54,16.10
2007,05,17,12,55,16.10
2007,05,17,12,56,16.10
2007,05,17,12,57,16.10
2007,05,17,12,58,16.00
2007,05,17,12,59,15.90
2007,05,17,13,00,15.90
2007,05,17,13,01,15.90
2007,05,17,13,02,15.90
2007,05,17,13,03,16.00
2007,05,17,13,04,16.10
2007,05,17,13,05,16.00
2007,05,17,13,06,16.00
2007,05,17,13,07,16.10
2007,05,17,13,08,16.00
2007,05,17,13,09,16.10
2007,05,17,13,10,16.10
2007,05,17,13,11,16.20
2007,05,17,13,12,16.40
2007,05,17,13,13,16.40
2007,05,17,13,14,16.60
2007,05,17,13,15,16.60
2007,05,17,13,16,16.40
2007,05,17,13,17,16.40
2007,05,17,13,18,16.40
2007,05,17,13,19,16.30
2007,05,17,13,20,16.30
2007,05,17,13,21,16.30
2007,05,17,13,22,16.30
2007,05,17,13,23,16.30
2007,05,17,13,24,16.40
2007,05,17,13,25,16.40
2007,05,17,13,26,16.40
2007,05,17,13,27,16.40
2007,05,17,13,28,16.40
2007,05,17,13,29,16.40
2007,05,17,13,30,16.40
2007,05,17,13,31,16.40
2007,05,17,13,32,16.40
2007,05,17,13,33,16.40
2007,05,17,13,34,16.50
2007,05,17,13,35,16.70
2007,05,17,13,36,16.80
2007,05,17,13,37,16.80
2007,05,17,13,38,16.70
2007,05,17,13,39,16.60
2007,05,17,13,40,16.60
2007,05,17,13,41,16.60
2007,05,17,13,42,16.40
2007,05,17,13,43,16.50
2007,05,17,13,44,16.50
2007,05,17,13,45,16.50
2007,05,17,13,46,16.60
2007,05,17,13,47,16.70
2007,05,17,13,48,16.80
2007,05,17,13,49,16.90
2007,05,17,13,50,16.80
2007,05,17,13,51,16.80
2007,05,17,13,52,16.80
2007,05,17,13,53,16.70
2007,05,17,13,54,16.80
2007,05,17,13,55,16.90
2007,05,17,13,56,16.90
2007,05,17,13,57,16.90
2007,05,17,13,58,16.80
2007,05,17,13,59,16.90
2007,05,17,14,00,17.10
2007,05,17,14,01,17.20
2007,05,17,14,02,17.30
2007,05,17,14,03,17.20
2007,05,17,14,04,17.30
2007,05,17,14,05,17.30
2007,05,17,14,06,17.30
2007,05,17,14,07,17.30
2007,05,17,14,08,17.30
2007,05,17,14,09,17.30
2007,05,17,14,10,17.30
2007,05,17,14,11,17.30
2007,05,17,14,12,17.30
2007,05,17,14,13,17.30
2007,05,17,14,14,17.40
2007,05,17,14,15,17.40
2007,05,17,14,16,17.40
2007,05,17,14,17,17.30
2007,05,17,14,18,17.30
2007,05,17,14,19,17.30
2007,05,17,14,20,17.30
2007,05,17,14,21,17.20
2007,05,17,14,22,17.10
2007,05,17,14,23,17.00
2007,05,17,14,24,16.90
2007,05,17,14,25,16.90
2007,05,17,14,26,16.90
2007,05,17,14,27,16.90
2007,05,17,14,28,17.00
2007,05,17,14,29,17.10
2007,05,17,14,30,17.20
2007,05,17,14,31,17.30
2007,05,17,14,32,17.50
2007,05,17,14,33,17.60
2007,05,17,14,34,17.60
2007,05,17,14,35,17.60
2007,05,17,14,36,17.60
2007,05,17,14,37,17.60
2007,05,17,14,38,17.70
2007,05,17,14,39,17.80
2007,05,17,14,40,17.80
2007,05,17,14,41,17.70
2007,05,17,14,42,17.70
2007,05,17,14,43,17.70
2007,05,17,14,44,17.70
2007,05,17,14,45,17.60
2007,05,17,14,46,17.60
2007,05,17,14,47,17.50
2007,05,17,14,48,17.40
2007,05,17,14,49,17.40
2007,05,17,14,50,17.40
2007,05,17,14,51,17.40
2007,05,17,14,52,17.30
2007,05,17,14,53,17.40
2007,05,17,14,54,17.40
2007,05,17,14,55,17.50
2007,05,17,14,56,17.60
2007,05,17,14,57,17.70
2007,05,17,14,58,17.80
2007,05,17,14,59,17.80
2007,05,17,15,00,17.90
2007,05,17,15,01,17.90
2007,05,17,15,02,17.90
2007,05,17,15,03,17.90
2007,05,17,15,04,17.90
2007,05,17,15,05,17.80
2007,05,17,15,06,17.80
2007,05,17,15,07,17.90
2007,05,17,15,08,17.90
2007,05,17,15,09,17.90
2007,05,17,15,10,17.90
2007,05,17,15,11,17.80
2007,05,17,15,12,17.80
2007,05,17,15,13,17.80
2007,05,17,15,14,17.90
2007,05,17,15,15,17.90
2007,05,17,15,16,17.90
2007,05,17,15,17,17.90
2007,05,17,15,18,18.00
2007,05,17,15,19,18.20
2007,05,17,15,20,18.20
2007,05,17,15,21,18.20
2007,05,17,15,22,18.20
2007,05,17,15,23,18.20
2007,05,17,15,24,18.20
2007,05,17,15,25,18.10
2007,05,17,15,26,18.10
2007,05,17,15,27,18.20
2007,05,17,15,28,18.40
2007,05,17,15,29,18.60
2007,05,17,15,30,18.70
2007,05,17,15,31,18.60
2007,05,17,15,32,18.60
2007,05,17,15,33,18.50
2007,05,17,15,34,18.30
2007,05,17,15,35,18.20
2007,05,17,15,36,18.20
2007,05,17,15,37,18.20
2007,05,17,15,38,18.20
2007,05,17,15,39,18.20
2007,05,17,15,40,18.20
2007,05,17,15,41,18.20
2007,05,17,15,42,18.20
2007,05,17,15,43,18.20
2007,05,17,15,44,18.20
2007,05,17,15,45,18.20
2007,05,17,15,46,18.30
2007,05,17,15,47,18.30
2007,05,17,15,48,18.30
2007,05,17,15,49,18.20
2007,05,17,15,50,18.20
2007,05,17,15,51,18.30
2007,05,17,15,52,18.30
2007,05,17,15,53,18.20
2007,05,17,15,54,18.20
2007,05,17,15,55,18.00
2007,05,17,15,56,17.90
2007,05,17,15,57,17.90
2007,05,17,15,58,17.90
2007,05,17,15,59,17.90
2007,05,17,16,00,17.90
2007,05,17,16,01,17.90
2007,05,17,16,02,17.90
2007,05,17,16,03,17.90
2007,05,17,16,04,18.10
2007,05,17,16,05,18.10
2007,05,17,16,06,18.10
2007,05,17,16,07,18.10
2007,05,17,16,08,18.10
2007,05,17,16,09,17.90
2007,05,17,16,10,17.90
2007,05,17,16,11,18.10
2007,05,17,16,12,18.10
2007,05,17,16,13,17.90
2007,05,17,16,14,17.90
2007,05,17,16,15,17.90
2007,05,17,16,16,17.90
2007,05,17,16,17,17.80
2007,05,17,16,18,17.80
2007,05,17,16,19,17.70
2007,05,17,16,20,17.70
2007,05,17,16,21,17.60
2007,05,17,16,22,17.60
2007,05,17,16,23,17.70
2007,05,17,16,24,17.70
2007,05,17,16,25,17.70
2007,05,17,16,26,17.80
2007,05,17,16,27,17.80
2007,05,17,16,28,17.80
2007,05,17,16,29,17.80
2007,05,17,16,30,17.80
2007,05,17,16,31,17.80
2007,05,17,16,32,17.80
2007,05,17,16,33,17.70
2007,05,17,16,34,17.70
2007,05,17,16,35,17.70
2007,05,17,16,36,17.70
2007,05,17,16,37,17.70
2007,05,17,16,38,17.60
2007,05,17,16,39,17.60
2007,05,17,16,40,17.50
2007,05,17,16,41,17.50
2007,05,17,16,42,17.60
2007,05,17,16,43,17.60
2007,05,17,16,44,17.50
2007,05,17,16,45,17.60
2007,05,17,16,46,17.60
2007,05,17,16,47,17.60
2007,05,17,16,48,17.60
2007,05,17,16,49,17.50
2007,05,17,16,50,17.50
2007,05,17,16,51,17.50
2007,05,17,16,52,17.40
2007,05,17,16,53,17.30
2007,05,17,16,54,17.30
2007,05,17,16,55,17.40
2007,05,17,16,56,17.50
2007,05,17,16,57,17.70
2007,05,17,16,58,17.80
2007,05,17,16,59,17.80
2007,05,17,17,00,17.70
2007,05,17,17,01,17.70
2007,05,17,17,02,17.70
2007,05,17,17,03,17.80
2007,05,17,17,04,17.80
2007,05,17,17,05,17.80
2007,05,17,17,06,17.80
2007,05,17,17,07,17.80
2007,05,17,17,08,17.80
2007,05,17,17,09,17.90
2007,05,17,17,10,17.90
2007,05,17,17,11,17.90
2007,05,17,17,12,17.90
2007,05,17,17,13,17.80
2007,05,17,17,14,17.70
2007,05,17,17,15,17.60
2007,05,17,17,16,17.50
2007,05,17,17,17,17.50
2007,05,17,17,18,17.40
2007,05,17,17,19,17.40
2007,05,17,17,20,17.40
2007,05,17,17,21,17.50
2007,05,17,17,22,17.60
2007,05,17,17,23,17.60
2007,05,17,17,24,17.60
2007,05,17,17,25,17.70
2007,05,17,17,26,17.70
2007,05,17,17,27,17.80
2007,05,17,17,28,17.80
2007,05,17,17,29,17.80
2007,05,17,17,30,17.80
2007,05,17,17,31,17.80
2007,05,17,17,32,17.70
2007,05,17,17,33,17.70
2007,05,17,17,34,17.60
2007,05,17,17,35,17.60
2007,05,17,17,36,17.70
2007,05,17,17,37,17.70
2007,05,17,17,38,17.70
2007,05,17,17,39,17.70
2007,05,17,17,40,17.70